Regional Weather Roundup
Issued by NWS

Home | Current Version | Previous Version | Text Only | Print | Product List | Glossary Off
Versions: 1 2 3 4 5 6 7 8 9 10 11 12 13 14 15 16 17 18 19 20 21 22 23 24 25 26 27 28 29 30 31 32 33 34 35 36 37 38 39 40 41 42 43 44 45 46 47 48 49 50

923
ASUS44 KMEG 251210
RWRTN
TENNESSEE HOURLY STATE WEATHER ROUNDUP
NATIONAL WEATHER SERVICE MEMPHIS TN
700 AM CDT TUE APR 25 2017

TNZ002-004-019-021-049-052-054-088>092-251300-
WEST TENNESSEE

CITY           SKY/WX    TMP DP  RH WIND       PRES   REMARKS
MEMPHIS INTL   PTCLDY    55  53  93 S9        29.75R
NWS MEMPHIS      N/A     54 N/A N/A MISG        N/A
JACKSON        PTCLDY    51  51 100 CALM      29.76S
DYERSBURG      CLEAR     55  53  93 S5        29.75S
SOMERVILLE     CLEAR     54  52  94 S3        29.75S
UNION CITY     CLEAR     54  52  94 CALM      29.74S
BOLIVAR        CLEAR     48  48 100 SE5       29.76S
PARIS          CLEAR     52  50  93 SE3       29.76S
HUNTINGDON     CLEAR     52  52 100 CALM      29.75S
LEXINGTON      FOG       46  46 100 CALM      29.78R VSB 1/4
SAVANNAH       FOG       48  48 100 CALM      29.78S VSB 1
$$

TNZ008-025-027-028-033-062-065-066-251300-
NORTH MIDDLE TENNESSEE

CITY           SKY/WX    TMP DP  RH WIND       PRES   REMARKS
NASHVILLE      MOSUNNY   51  50  96 CALM      29.81R
PORTLAND       FOG       54  54 100 CALM      29.79R VSB 0
CLARKSVILLE    FOG       49  48  97 SE3       29.78S VSB 1/4
SMYRNA         FOG       50  50 100 SE3       29.82R VSB 1/4
COOKEVILLE     FOG       54  54 100 SW3       29.79R VSB 1/2
GALLATIN       FOG       52  52 100 CALM      29.83R VSB 0
CROSSVILLE     FOG       52  52 100 W7        29.80R VSB<1/4
$$

TNZ061-075-076-078-094-096-097-251300-
SOUTH MIDDLE TENNESSEE

CITY           SKY/WX    TMP DP  RH WIND       PRES   REMARKS
FAYETTEVILLE   CLOUDY    50  50 100 CALM      29.80R
TULLAHOMA      CLOUDY    52  52 100 CALM      29.81S VSB 0
WINCHESTER     CLOUDY    54  54 100 CALM      29.81S
MCMINNVILLE    CLOUDY    54  54 100 CALM      29.81R
COLUMBIA       CLOUDY   N/A N/A N/A CALM      29.79R VSB 0
SHELBYVILLE    CLOUDY    52  52 100 CALM      29.82R VSB 0
$$

TNZ017-018-042-046-047-251300-
NORTHEAST TENNESSEE

CITY           SKY/WX    TMP DP  RH WIND       PRES   REMARKS
TRI CITIES     CLOUDY    54  51  90 CALM      29.78R
ELIZABETHTON   CLOUDY    54  52  94 CALM      29.78R
$$

TNZ012-013-036-069-073-074-251300-
CENTRAL EAST TENNESSEE

CITY           SKY/WX    TMP DP  RH WIND       PRES   REMARKS
KNOXVILLE      PTSUNNY   54  51  90 CALM      29.77R
OAK RIDGE      SUNNY     53  51  93 CALM      29.79R
DOWNTOWN KNOXV CLOUDY    55  54  94 CALM      29.78R
GATLINBURG     CLOUDY    54  52  94 CALM      29.77S
MORRISTOWN     CLOUDY    54  52  94 SW3       29.76S
JACKSBORO      MOSUNNY   54  54 100 CALM      29.80R
$$

TNZ083-085-099-251300-
SOUTHEAST TENNESSEE

CITY           SKY/WX    TMP DP  RH WIND       PRES   REMARKS
CHATTANOOGA    PTSUNNY   55  53  93 CALM      29.78R
$$

SKY/WX REPORTED AS FAIR MEANS FEW OR NO CLOUDS BELOW
12 THOUSAND FEET.





USA.gov is the U.S. government's official web portal to all federal, state and local government web resources and services.